Topeka, KS

6:38 PM CDT on October 14, 2019 (GMT -0500)
Billard Municipal

Weather History for KTOP - August, 2019

Change the Weather History Date:

Sunday, August 4, 2019

  Actual Average Record
Temperature  
Mean Temperature 77 °F 79 °F  
Max Temperature 88 °F 90 °F 107 °F (1930)
Min Temperature 65 °F 68 °F 50 °F (1894)
Degree Days  
Heating Degree Days 0 0  
Month to date heating degree days 0 0  
Since 1 June heating degree days 0 8  
Since 1 July heating degree days 0 0  
Cooling Degree Days 12 14  
Month to date cooling degree days 47 56  
Year to date cooling degree days 926 898  
Since 1 June cooling degree days 814 772  
Growing Degree Days 26 (Base 50)    
Moisture  
Dew Point 65 °F    
Average Humidity 68    
Maximum Humidity 93    
Minimum Humidity 43    
Precipitation  
Precipitation 0.00 in 0.13 in 4.07 in (1906)
Month to date precipitation 1.67 0.53  
Year to date precipitation 30.53 22.86  
Snow  
Snow 0.00 in 0.00 in T in (1931)
Month to date snowfall 0.0 0.0  
Year to date snowfall 18.5 11.3  
Since 1 July snowfall 0.0 0.0  
Snow Depth 0.00 in    
Sea Level Pressure  
Sea Level Pressure 30.03 in    
Wind  
Wind Speed 2 mph (ESE)    
Max Wind Speed 13 mph    
Max Gust Speed 22 mph    
Visibility 6 miles    
Events Fog    
T = Trace of Precipitation, MM = Missing Value Source: NWS Daily Summary

Daily Weather History Graph

Daily Weather History Graph

Search for Another Location

Airport or City:

Astronomy

Aug. 04, 2019 Rise Set
Actual Time 6:25 AM CDT 8:31 PM CDT
Civil Twilight 5:56 AM CDT 9:00 PM CDT
Nautical Twilight 5:19 AM CDT 9:36 PM CDT
Astronomical Twilight 4:40 AM CDT 10:15 PM CDT
Moon 10:30 AM CDT (8/4) 11:12 PM CDT (8/4)
Length of Visible Light 15h 04m
Length of Day
14h 05m
Waxing Crescent, 18% of the Moon is Illuminated
Aug 4
Waxing Crescent
Aug 7
First Quarter
Aug 15
Full
Aug 23
Last Quarter
Aug 30
New

Hourly Weather History & Observations

Time (CDT) Temp. Heat Index Dew Point Humidity Pressure Visibility Wind Dir Wind Speed Gust Speed Precip Events Conditions
12:53 AM 70.0 °F - 66.0 °F 87% 30.03 in 9.0 mi Calm Calm - N/A   Clear
1:53 AM 68.0 °F - 66.0 °F 93% 30.03 in 7.0 mi Calm Calm - N/A   Clear
2:53 AM 69.1 °F - 66.0 °F 90% 30.03 in 10.0 mi Calm Calm - N/A   Clear
3:53 AM 66.9 °F - 64.0 °F 90% 30.03 in 4.0 mi Calm Calm - N/A   Clear
4:37 AM 66.9 °F - 64.9 °F 93% 30.05 in 0.8 mi Calm Calm - N/A   Clear
4:45 AM 66.0 °F - 64.9 °F 96% 30.05 in 0.5 mi Calm Calm - N/A Fog Fog
4:51 AM 66.2 °F - 64.4 °F 94% 30.05 in 1.0 mi Calm Calm - N/A   Clear
4:53 AM 66.9 °F - 64.9 °F 93% 30.02 in 2.0 mi Calm Calm - N/A   Clear
5:00 AM 66.9 °F - 64.9 °F 93% 30.05 in 4.0 mi Calm Calm - N/A   Clear
5:15 AM 66.9 °F - 64.0 °F 90% 30.05 in 1.5 mi Calm Calm - N/A   Clear
5:19 AM 66.0 °F - 64.0 °F 93% 30.05 in 1.0 mi Calm Calm - N/A   Mist
5:32 AM 66.0 °F - 64.0 °F 93% 30.05 in 1.0 mi Calm Calm - N/A   Mist
5:39 AM 66.0 °F - 64.0 °F 93% 30.05 in 1.5 mi Calm Calm - N/A   Scattered Clouds
5:49 AM 66.2 °F - 64.4 °F 94% 30.05 in 0.8 mi Calm Calm - N/A   Mist
5:53 AM 66.0 °F - 64.0 °F 93% 30.03 in 0.5 mi Calm Calm - N/A Fog Fog
5:59 AM 66.9 °F - 64.0 °F 90% 30.05 in 0.8 mi Calm Calm - N/A   Clear
6:03 AM 66.0 °F - 64.0 °F 93% 30.05 in 2.0 mi Calm Calm - N/A   Clear
6:14 AM 66.9 °F - 64.0 °F 90% 30.06 in 5.0 mi Calm Calm - N/A   Clear
6:48 AM 66.2 °F - 64.4 °F 94% 30.06 in 2.5 mi Calm Calm - N/A   Clear
6:53 AM 66.0 °F - 64.0 °F 93% 30.04 in 2.5 mi Calm Calm - N/A   Clear
7:00 AM 66.0 °F - 64.0 °F 93% 30.07 in 4.0 mi Calm Calm - N/A   Clear
7:53 AM 71.1 °F - 66.0 °F 84% 30.04 in 9.0 mi Calm Calm - N/A   Clear
8:53 AM 73.9 °F - 66.9 °F 79% 30.05 in 10.0 mi Calm Calm - N/A   Clear
9:53 AM 78.1 °F - 69.1 °F 74% 30.05 in 10.0 mi East 3.5 mph - N/A   Clear
10:53 AM 82.0 °F 84.9 °F 68.0 °F 62% 30.05 in 10.0 mi Calm Calm - N/A   Clear
11:53 AM 84.0 °F 86.3 °F 66.0 °F 55% 30.06 in 10.0 mi Variable 3.5 mph - N/A   Clear
12:53 PM 86.0 °F 87.3 °F 64.0 °F 48% 30.04 in 10.0 mi East 5.8 mph - N/A   Clear
1:53 PM 86.0 °F 87.3 °F 64.0 °F 48% 30.03 in 10.0 mi ENE 8.1 mph - N/A   Clear
2:53 PM 87.1 °F 88.9 °F 64.9 °F 48% 30.01 in 10.0 mi East 6.9 mph - N/A   Scattered Clouds
3:53 PM 87.1 °F 87.8 °F 63.0 °F 44% 30.00 in 10.0 mi South 8.1 mph - N/A   Partly Cloudy
4:53 PM 87.1 °F 87.5 °F 62.1 °F 43% 29.99 in 10.0 mi SE 4.6 mph - N/A   Clear
5:53 PM 88.0 °F 89.3 °F 64.0 °F 45% 29.98 in 10.0 mi Variable 3.5 mph - N/A   Clear
6:53 PM 86.0 °F 86.8 °F 63.0 °F 46% 29.96 in 10.0 mi SSE 3.5 mph - N/A   Clear
7:53 PM 84.0 °F 85.4 °F 64.0 °F 51% 29.96 in 10.0 mi SSE 3.5 mph - N/A   Clear
8:53 PM 77.0 °F - 69.1 °F 76% 29.97 in 10.0 mi Calm Calm - N/A   Clear
9:53 PM 75.9 °F - 69.1 °F 79% 29.99 in 10.0 mi Calm Calm - N/A   Clear
10:53 PM 73.9 °F - 69.1 °F 85% 30.01 in 10.0 mi Calm Calm - N/A   Clear
11:53 PM 73.9 °F - 69.1 °F 85% 30.01 in 10.0 mi Calm Calm - N/A   Clear